Wetbulb
38.95 38.03 35.49 33.86 32.68 32.16 32.09 32.23 31.92 32.17 33.52 33.90 33.71 34.06 32.73 30.66 30.58 30.06 30.37 28.69 27.42 28.05 27.58 26.49 26.83 26.53 26.14 25.36 24.47 24.35 24.10 24.46
36.70 37.18 37.40 36.49 34.22 32.78 31.82 31.28 31.11 30.90 32.04 31.48 30.80 31.65 31.50 30.50 30.75 30.68 29.46 28.27 27.41 28.10 27.33 26.54 26.39 26.30 26.00 25.47 24.39 24.29 23.43 23.59
34.92 35.27 35.86 36.78 37.97 37.48 34.88 32.83 32.82 32.07 31.81 30.48 31.25 30.32 30.06 30.45 30.38 30.01 28.98 28.15 28.24 27.87 27.09 26.86 26.84 26.16 26.03 24.57 24.35 23.63 22.76 22.97
33.71 34.26 35.02 35.51 36.02 35.96 36.10 36.07 34.88 34.87 31.77 31.10 30.87 29.77 30.99 31.70 31.03 29.89 29.69 28.26 28.22 27.70 26.91 26.67 26.57 25.71 26.17 25.57 24.39 24.01 23.81 23.01
32.45 33.59 34.75 35.44 35.44 35.14 34.83 34.89 34.26 33.50 32.10 31.28 30.33 31.01 32.61 32.93 31.55 29.50 29.67 28.34 27.77 27.69 27.56 27.10 26.83 26.26 26.11 25.39 24.24 23.62 23.27 22.76
32.26 33.27 34.58 34.15 34.66 34.39 34.54 33.66 33.19 32.42 32.82 32.99 32.28 30.91 31.54 31.56 31.68 29.09 28.72 28.90 28.33 27.27 26.93 26.74 26.47 26.17 25.59 25.50 23.82 22.46 21.77 21.05
31.86 34.20 32.70 33.04 33.07 32.79 33.48 33.17 32.42 31.49 31.27 32.33 32.15 31.39 29.77 31.09 30.74 28.00 27.79 27.69 27.15 26.84 26.23 25.07 26.24 29.91 30.29 27.04 23.77 22.82 21.19 19.43
30.18 30.54 30.66 32.15 33.08 31.37 32.21 32.72 31.35 30.93 31.22 30.44 30.06 29.81 30.58 28.29 27.56 27.06 26.71 27.28 26.44 26.19 25.79 24.93 25.71 30.65 31.42 30.36 24.10 22.59 21.02 19.95
28.65 28.03 28.97 29.69 30.59 31.05 32.25 31.15 30.94 30.29 29.72 29.45 28.25 27.78 27.48 25.20 26.20 25.16 25.10 25.64 25.04 25.52 25.34 25.31 25.00 30.66 32.25 30.53 23.47 22.32 20.81 19.83
26.72 26.79 27.22 27.17 28.67 29.40 26.79 28.46 30.15 30.22 29.93 28.82 27.20 25.90 25.36 23.52 23.80 24.47 24.99 25.11 25.95 26.02 25.10 24.74 24.67 30.12 32.24 29.36 21.99 21.78 19.70 19.67
23.78 23.88 24.50 25.57 27.76 24.82 24.04 25.40 25.25 27.47 28.67 27.50 25.18 23.03 22.65 21.48 20.08 21.92 24.52 24.72 24.27 23.85 24.36 23.94 23.57 29.18 31.50 29.12 21.16 19.12 18.45 19.09
21.84 21.06 22.42 25.69 23.34 21.19 22.30 21.64 23.11 23.37 23.24 27.47 27.00 23.59 22.42 23.20 18.67 20.15 21.23 20.05 19.26 19.76 21.59 22.21 22.31 24.97 30.98 30.72 21.42 19.90 18.23 17.68
19.83 19.77 21.17 21.11 19.53 18.86 18.38 20.27 20.06 20.59 21.50 23.37 25.05 24.78 22.34 20.94 19.63 19.91 20.09 18.77 16.62 16.84 16.05 17.58 19.41 24.15 30.39 31.52 24.71 23.68 18.93 17.57
16.98 16.95 18.79 18.17 16.95 14.79 16.09 16.25 15.91 16.55 17.55 18.70 21.28 25.17 22.37 21.28 20.37 18.77 19.02 17.83 14.83 15.45 14.87 15.24 17.59 20.37 28.14 31.31 27.75 25.23 19.93 19.46
15.43 14.26 14.16 15.68 15.46 13.91 13.71 13.12 11.48 11.33 11.81 13.51 15.51 18.88 22.91 20.77 21.11 19.39 18.55 18.06 17.88 16.20 16.10 16.00 15.77 17.68 22.43 27.52 27.88 25.03 20.35 21.52
13.22 12.24 11.79 12.75 11.65 10.83 10.16 8.69 7.14 7.79 8.46 9.35 12.02 14.42 20.06 20.45 20.11 19.21 20.74 21.02 19.06 18.73 18.76 16.52 14.99 17.16 22.92 27.56 25.58 22.50 18.80 19.42
9.93 8.79 8.08 7.52 6.59 6.43 6.17 4.95 3.78 3.43 4.82 6.74 9.31 11.86 15.62 19.59 18.91 23.48 24.44 24.30 26.16 25.72 22.02 20.24 22.00 23.20 25.43 29.17 29.17 25.63 24.66 17.47
4.91 4.48 3.49 2.71 2.28 2.79 2.44 2.08 1.29 0.75 2.13 3.83 6.40 8.81 12.18 17.55 16.48 15.75 18.54 25.83 26.35 26.82 26.79 25.40 22.66 24.92 25.78 28.11 29.66 27.17 24.76 15.07
1.41 0.26 -0.25 -0.71 -1.04 0.94 1.15 0.58 0.11 0.35 1.67 2.74 4.82 7.39 10.47 14.45 16.65 15.56 15.67 14.71 19.31 25.52 26.01 27.52 25.76 26.16 26.11 28.07 29.21 24.72 21.40 13.31
-0.79 -0.97 -0.80 -1.49 -1.36 0.65 0.49 -0.25 -0.66 -0.16 0.97 2.95 5.13 8.11 10.63 12.88 16.52 14.95 15.08 15.26 16.98 19.38 23.45 25.94 27.15 25.08 26.60 27.97 24.06 21.21 11.70 11.08
MSLP
1006.91 1006.75 1006.41 1006.82 1006.95 1007.04 1007.18 1007.11 1006.68 1006.51 1006.53 1006.74 1006.90 1006.59 1007.02 1008.05 1008.75 1008.82 1009.58 1010.48 1011.57 1012.39 1013.05 1014.25 1015.36 1015.83 1016.32 1017.09 1017.80 1018.53 1019.32 1020.04
1008.44 1008.17 1008.14 1007.56 1007.28 1007.42 1007.22 1007.43 1007.58 1007.76 1007.85 1007.43 1007.54 1007.39 1007.15 1007.61 1007.81 1008.23 1009.09 1009.79 1010.61 1011.25 1012.29 1012.89 1014.10 1015.11 1015.79 1016.24 1017.04 1017.84 1018.61 1019.25
1010.02 1009.75 1009.13 1008.44 1008.26 1008.45 1008.43 1007.49 1007.21 1007.38 1007.13 1006.80 1006.94 1007.19 1007.25 1007.64 1007.52 1007.47 1007.83 1008.71 1009.41 1010.32 1011.26 1012.09 1012.83 1013.85 1014.71 1015.34 1015.91 1016.71 1017.51 1018.24
1010.70 1010.16 1009.75 1009.42 1009.15 1009.12 1008.87 1008.25 1008.13 1007.86 1007.35 1006.84 1006.44 1006.77 1006.20 1006.11 1006.68 1007.22 1007.53 1007.50 1008.15 1008.93 1009.52 1010.42 1011.21 1012.22 1013.13 1013.81 1014.62 1015.63 1016.49 1017.05
1011.66 1010.97 1010.56 1010.11 1009.62 1009.52 1009.19 1008.69 1008.59 1008.07 1007.34 1007.13 1006.52 1005.46 1004.99 1005.14 1005.65 1006.13 1006.41 1007.40 1007.66 1007.55 1008.19 1009.24 1009.63 1010.52 1011.57 1012.36 1013.75 1014.56 1015.62 1016.13
1012.52 1011.99 1011.38 1010.26 1010.13 1009.67 1009.52 1009.35 1009.07 1008.14 1007.28 1006.59 1005.32 1004.78 1004.59 1004.65 1004.56 1005.02 1005.46 1005.43 1006.65 1007.70 1007.72 1008.09 1008.88 1009.13 1009.87 1010.78 1012.12 1013.28 1014.43 1015.48
1013.16 1012.41 1011.94 1010.83 1010.19 1009.77 1009.53 1009.41 1009.11 1007.99 1007.62 1007.20 1005.91 1004.61 1004.70 1004.27 1003.85 1003.88 1004.75 1005.01 1005.80 1006.08 1006.68 1007.65 1007.64 1007.70 1008.46 1009.41 1010.71 1012.12 1012.82 1014.29
1013.43 1012.87 1012.85 1012.23 1011.67 1010.88 1010.26 1009.66 1009.01 1008.39 1007.88 1007.21 1006.18 1005.23 1004.70 1004.19 1003.75 1003.54 1003.73 1004.12 1004.61 1005.15 1005.50 1005.59 1007.02 1006.92 1007.84 1008.96 1009.50 1010.55 1011.73 1012.70
1013.70 1013.51 1013.40 1012.54 1011.75 1011.06 1010.42 1009.60 1008.88 1008.49 1008.16 1007.52 1006.69 1005.85 1004.81 1004.33 1003.75 1003.62 1003.56 1003.46 1003.73 1004.03 1004.37 1004.67 1005.76 1005.78 1006.74 1008.17 1009.17 1009.66 1010.26 1011.30
1013.71 1013.47 1013.05 1012.46 1011.56 1010.85 1009.95 1009.53 1008.89 1008.14 1007.57 1007.14 1006.63 1006.17 1005.44 1004.46 1003.93 1003.60 1003.72 1003.79 1003.54 1003.34 1003.40 1004.23 1004.52 1004.26 1005.59 1007.60 1008.89 1009.10 1009.39 1010.44
1013.85 1013.64 1013.31 1012.29 1011.42 1010.98 1010.51 1009.93 1009.17 1008.74 1008.47 1007.83 1007.10 1006.50 1005.82 1004.41 1004.00 1003.95 1003.92 1003.97 1003.87 1003.33 1003.57 1004.17 1004.09 1004.15 1005.09 1006.25 1007.57 1008.72 1009.39 1010.19
1013.56 1013.24 1012.60 1012.07 1011.68 1011.22 1010.57 1010.10 1009.35 1009.01 1008.51 1007.30 1006.27 1005.66 1004.83 1004.33 1003.96 1004.07 1003.86 1003.51 1003.50 1003.90 1004.01 1004.11 1004.41 1004.29 1004.73 1005.25 1007.03 1007.55 1008.81 1009.49
1013.35 1012.83 1012.19 1011.95 1011.88 1011.41 1010.74 1010.22 1009.70 1009.23 1008.01 1006.67 1006.05 1004.99 1004.71 1004.30 1004.31 1003.87 1004.05 1003.26 1003.23 1003.35 1004.08 1004.35 1004.41 1004.38 1004.05 1004.66 1005.87 1006.70 1007.57 1008.31
1013.26 1012.63 1011.79 1011.68 1011.69 1011.10 1010.34 1010.36 1009.54 1008.50 1007.20 1006.37 1005.79 1004.64 1004.34 1004.12 1003.61 1003.74 1003.31 1003.30 1002.87 1003.20 1003.73 1003.36 1003.79 1004.24 1004.02 1004.20 1004.93 1006.43 1007.51 1008.01
1012.82 1012.22 1011.31 1010.90 1010.79 1010.59 1010.15 1009.91 1009.34 1008.43 1007.40 1006.40 1005.65 1004.37 1003.49 1003.15 1002.78 1002.30 1002.28 1002.14 1002.29 1001.97 1002.28 1002.56 1002.80 1003.04 1003.29 1003.35 1004.07 1005.78 1007.45 1007.77
1012.56 1011.94 1010.98 1010.62 1010.19 1010.31 1010.13 1009.87 1009.07 1008.30 1007.21 1006.10 1005.06 1003.82 1002.53 1001.72 1000.99 1000.62 1000.33 1000.77 1000.73 1000.01 1000.50 1000.77 1001.17 1001.16 1001.63 1001.58 1002.80 1004.21 1006.25 1007.50
1012.26 1011.96 1011.06 1010.60 1009.84 1009.97 1010.01 1009.73 1008.83 1007.53 1006.49 1005.55 1004.45 1003.25 1002.07 1000.58 999.58 999.05 999.30 999.70 999.26 999.38 998.59 999.27 999.42 999.96 1001.06 1001.66 1001.98 1003.66 1004.76 1006.42
1012.36 1011.76 1011.31 1010.65 1009.73 1009.54 1009.29 1008.85 1007.91 1006.85 1005.61 1004.74 1003.83 1002.71 1001.37 999.85 999.03 998.56 998.43 998.25 998.21 998.26 997.82 998.70 998.92 999.04 999.38 1000.57 1002.01 1003.72 1004.31 1004.93
1012.42 1011.59 1010.98 1009.97 1008.97 1008.76 1008.20 1007.45 1006.65 1005.82 1004.88 1003.94 1002.67 1001.50 1000.24 999.03 998.04 998.07 997.73 997.53 997.01 997.10 997.02 997.58 998.56 998.75 998.90 998.93 999.98 1001.62 1003.29 1005.37
1011.62 1010.76 1009.95 1008.98 1007.95 1007.49 1006.80 1006.02 1005.22 1004.58 1003.71 1002.88 1001.77 1000.57 999.57 998.57 997.42 996.97 997.00 996.79 996.49 996.95 996.71 996.66 997.52 998.57 998.24 998.57 998.93 999.74 1001.83 1002.91
Wind_Speed
14 14 10 7 6 7 7 7 4 7 9 10 11 12 10 10 13 12 12 11 13 15 15 14 12 12 13 9 9 11 8 7
17 16 16 13 10 8 6 6 7 5 6 7 6 7 7 10 12 13 10 13 14 16 15 16 16 14 13 12 12 13 11 9
14 14 15 15 16 17 13 9 9 7 7 8 8 8 8 10 11 12 14 14 16 16 15 16 17 16 17 16 14 15 14 13
18 17 16 15 15 15 14 15 11 13 10 10 10 10 14 15 13 12 13 15 15 16 18 19 19 18 18 17 16 16 14 14
16 16 15 16 15 15 14 15 15 12 10 13 11 14 15 14 13 13 14 13 15 18 18 18 19 19 19 17 16 15 14 13
17 15 16 16 16 16 15 15 14 14 17 15 10 8 10 11 13 12 14 16 15 14 15 16 17 15 19 19 18 17 15 13
16 14 18 19 17 17 16 17 16 15 14 16 14 9 9 11 11 11 14 14 14 16 16 16 13 27 32 24 18 17 17 15
15 15 15 16 14 16 15 13 15 15 14 15 16 15 12 8 7 11 14 13 15 16 16 17 16 29 31 30 15 17 16 16
11 12 13 15 14 14 14 15 13 13 12 14 16 15 13 7 7 6 8 13 14 15 16 16 16 29 31 29 15 16 17 17
10 12 13 14 15 14 15 15 15 15 15 16 15 16 13 7 7 5 6 9 12 12 14 17 15 29 31 28 15 15 16 15
10 7 9 13 12 13 15 15 15 15 16 14 12 12 13 8 5 3 5 8 7 8 10 13 12 28 32 29 12 14 11 13
10 10 12 10 10 14 13 15 14 15 17 18 12 11 10 9 2 4 4 3 3 3 5 9 12 17 33 33 12 11 11 11
12 13 14 11 10 14 16 14 13 15 17 16 18 10 6 7 6 4 6 7 6 7 4 4 7 16 29 33 24 21 14 14
10 15 17 13 9 14 15 13 16 18 18 17 17 15 10 9 9 6 7 6 7 8 8 7 7 8 25 32 28 23 10 9
13 16 19 16 15 14 15 15 15 18 19 17 16 16 12 9 9 8 8 9 9 10 10 9 9 10 11 13 16 20 12 16
14 16 21 20 19 16 16 15 17 18 17 17 14 15 15 12 10 10 11 12 10 10 9 11 11 13 18 18 13 13 16 14
19 19 22 21 21 18 16 16 18 19 15 13 12 12 13 12 10 20 23 22 26 22 15 10 16 22 28 29 27 30 33 12
21 21 21 21 23 19 18 17 18 19 18 14 14 12 12 12 10 10 9 26 25 27 24 24 19 26 34 33 29 29 28 12
21 22 21 22 23 19 19 18 19 18 23 16 14 13 13 13 10 8 8 8 9 22 21 24 23 26 29 34 32 19 19 10
21 20 20 20 21 19 19 19 19 16 14 13 13 12 14 12 10 9 9 8 8 6 15 17 24 23 27 34 15 15 13 14
Wind_Direction
5 7 19 352 334 328 317 289 255 217 211 211 215 205 185 178 196 184 182 170 174 181 182 180 185 180 176 174 167 167 173 169
13 16 11 7 2 343 332 317 294 277 274 258 251 224 197 201 198 194 177 176 179 183 185 181 184 185 183 180 172 180 174 170
8 5 10 12 13 8 347 335 315 275 247 234 227 214 215 222 214 188 185 182 183 182 185 188 189 185 188 183 181 180 180 173
359 5 8 8 7 3 355 1 340 309 282 254 231 215 221 222 216 207 199 191 188 184 186 190 190 187 191 187 181 186 186 175
356 356 356 356 358 356 350 353 343 334 296 265 239 225 229 228 216 206 200 202 199 193 192 194 189 189 189 183 184 183 184 176
350 342 344 348 347 349 344 343 339 341 339 325 289 260 239 228 217 204 204 198 199 200 198 191 195 191 187 185 182 178 176 176
340 342 338 340 339 340 341 338 333 342 343 335 324 298 264 244 224 200 204 200 196 200 194 198 200 196 192 183 180 181 177 175
331 333 330 327 329 329 328 328 331 333 333 338 336 325 297 258 228 210 205 195 201 201 195 196 207 199 196 192 182 178 179 170
318 320 315 318 321 323 325 324 326 325 324 334 334 321 304 278 244 241 213 204 201 201 199 197 203 198 195 191 185 179 176 174
311 307 314 314 318 324 327 323 323 324 323 328 331 319 306 269 260 239 227 222 218 207 197 203 203 195 189 186 188 184 175 171
294 280 287 296 313 322 315 317 319 326 320 305 307 297 290 273 256 240 225 233 222 211 204 210 202 196 191 184 178 178 173 171
299 291 291 286 312 304 305 305 312 315 310 304 297 292 289 286 250 242 215 172 189 200 209 205 200 202 198 186 186 178 170 175
299 299 298 301 304 295 293 304 307 299 299 308 308 290 272 247 254 222 218 188 177 168 183 204 204 215 205 197 187 184 178 181
284 288 290 290 281 284 291 306 306 305 304 305 302 298 259 245 231 221 205 214 189 190 199 184 186 215 215 204 186 197 186 175
289 284 287 291 292 286 302 309 302 298 297 298 294 292 270 240 231 220 214 207 209 196 201 190 185 188 209 204 180 188 172 164
285 287 287 296 293 299 302 305 295 291 288 287 285 282 278 241 230 228 229 218 218 208 199 185 192 198 197 187 174 168 158 153
293 292 293 296 295 297 297 297 290 285 284 281 281 280 279 265 250 241 239 238 236 229 198 204 200 187 199 205 178 172 164 159
294 295 296 294 292 297 293 286 279 277 282 281 274 270 270 268 242 249 242 244 239 237 222 215 205 195 191 198 192 178 164 166
293 292 291 288 286 290 286 281 276 274 275 273 272 268 266 265 245 232 232 236 234 231 230 221 208 206 197 193 182 179 169 167
290 289 287 288 291 290 286 281 278 276 272 272 271 271 273 280 252 220 223 224 228 217 225 210 211 209 199 196 193 180 161 155